Change the Weather History Date:

Friday, May 17, 2013

  Actual Average Record
Temperature  
Mean Temperature 71 °F 64 °F  
Max Temperature 84 °F 76 °F 90 °F (2001)
Min Temperature 58 °F 51 °F 34 °F (2002)
Degree Days  
Heating Degree Days 0 4  
Month to date heating degree days 74 102  
Since 1 July heating degree days 5599 5766  
Cooling Degree Days 6 3  
Month to date cooling degree days 39 29  
Year to date cooling degree days 47 40  
Growing Degree Days 20 (Base 50)    
Moisture  
Dew Point 59 °F    
Average Humidity 69    
Maximum Humidity 100    
Minimum Humidity 37    
Precipitation  
Precipitation 0.00 in 0.15 in 0.74 in (1999)
Month to date precipitation 1.49 2.58  
Year to date precipitation 13.73 13.19  
Sea Level Pressure  
Sea Level Pressure 29.98 in    
Wind  
Wind Speed 8 mph (SE)    
Max Wind Speed 18 mph    
Max Gust Speed 28 mph    
Visibility 7 miles    
Events Fog    
T = Trace of Precipitation, MM = Missing Value Source: NWS Daily Summary

Daily Weather History Graph

Daily Weather History Graph

Search for Another Location

Airport or City:

Trip Planner

Search our weather history database for the weather conditions in past years. The results will help you decide how hot, cold, wet, or windy it might be!

Date:

Astronomy

May. 17, 2013 Rise Set
Actual Time 5:35 AM CDT 8:03 PM CDT
Civil Twilight 5:04 AM CDT 8:34 PM CDT
Nautical Twilight 4:26 AM CDT 9:13 PM CDT
Astronomical Twilight 3:44 AM CDT 9:56 PM CDT
Moon 12:07 PM CDT (5/17) 12:56 AM CDT (5/17)
Length of Visible Light 15h 29m
Length of Day
14h 28m
Waxing Crescent, 45% of the Moon is Illuminated
May 17
Waxing Crescent
May 17
First Quarter
May 24
Full
May 31
Last Quarter
Jun 8
New

Hourly Weather History & Observations

Time (CDT) Temp. Heat Index Dew Point Humidity Pressure Visibility Wind Dir Wind Speed Gust Speed Precip Events Conditions
12:53 AM 64.9 °F - 60.1 °F 84% 29.96 in 10.0 mi South 6.9 mph - N/A   Partly Cloudy
1:53 AM 64.0 °F - 60.1 °F 87% 29.95 in 8.0 mi South 8.1 mph - N/A   Clear
2:53 AM 63.0 °F - 60.1 °F 90% 29.95 in 7.0 mi South 5.8 mph - N/A   Clear
3:53 AM 61.0 °F - 59.0 °F 93% 29.96 in 7.0 mi South 4.6 mph - N/A   Clear
4:53 AM 60.1 °F - 57.0 °F 90% 29.97 in 5.0 mi ESE 3.5 mph - N/A   Clear
5:40 AM 57.2 °F - 57.2 °F 100% 29.98 in 2.0 mi ESE 4.6 mph - N/A   Partly Cloudy
5:42 AM 57.2 °F - 57.2 °F 100% 29.98 in 0.8 mi ESE 4.6 mph - N/A   Mist
5:51 AM 57.2 °F - 57.2 °F 100% 29.98 in 0.2 mi ESE 4.6 mph - N/A Fog Fog
5:53 AM 57.9 °F - 57.0 °F 97% 29.97 in 0.2 mi ESE 4.6 mph - N/A Fog Shallow Fog
6:02 AM 59.0 °F - 57.2 °F 94% 29.98 in 0.2 mi East 4.6 mph - N/A Fog Shallow Fog
6:10 AM 59.0 °F - 57.2 °F 94% 29.99 in 1.0 mi East 4.6 mph - N/A Fog Shallow Fog
6:24 AM 60.8 °F - 59.0 °F 94% 29.99 in 2.5 mi East 3.5 mph - N/A   Clear
6:46 AM 62.6 °F - 60.8 °F 94% 30.00 in 3.0 mi ESE 3.5 mph - N/A   Clear
6:53 AM 63.0 °F - 61.0 °F 93% 29.99 in 3.0 mi SE 3.5 mph - N/A   Clear
7:53 AM 69.1 °F - 62.1 °F 78% 30.00 in 5.0 mi East 6.9 mph - N/A   Haze
8:53 AM 73.9 °F - 62.1 °F 66% 30.01 in 8.0 mi Variable 3.5 mph - N/A   Clear
9:53 AM 75.9 °F - 62.1 °F 62% 30.00 in 10.0 mi SSE 4.6 mph - N/A   Partly Cloudy
10:53 AM 79.0 °F - 61.0 °F 54% 29.99 in 10.0 mi SSE 12.7 mph - N/A   Partly Cloudy
11:53 AM 79.0 °F - 59.0 °F 50% 29.99 in 10.0 mi SSE 10.4 mph - N/A   Partly Cloudy
12:53 PM 79.0 °F - 60.1 °F 52% 29.99 in 10.0 mi SSE 12.7 mph - N/A   Clear
1:53 PM 79.0 °F - 59.0 °F 50% 29.97 in 10.0 mi SSE 13.8 mph - N/A   Clear
2:53 PM 80.1 °F 80.4 °F 57.0 °F 45% 29.96 in 10.0 mi South 9.2 mph 16.1 mph N/A   Clear
3:53 PM 82.9 °F 81.9 °F 54.0 °F 37% 29.95 in 10.0 mi South 16.1 mph 23.0 mph N/A   Partly Cloudy
4:53 PM 80.1 °F 80.0 °F 54.0 °F 40% 29.95 in 10.0 mi SSE 12.7 mph - N/A   Scattered Clouds
5:53 PM 78.1 °F - 59.0 °F 52% 29.95 in 10.0 mi South 13.8 mph - N/A   Clear
6:53 PM 75.0 °F - 61.0 °F 62% 29.96 in 10.0 mi South 13.8 mph - N/A   Mostly Cloudy
7:53 PM 71.1 °F - 60.1 °F 68% 29.98 in 10.0 mi South 10.4 mph - N/A   Scattered Clouds
8:53 PM 68.0 °F - 59.0 °F 73% 29.99 in 10.0 mi SSE 3.5 mph - N/A   Clear
9:53 PM 66.9 °F - 60.1 °F 79% 30.01 in 10.0 mi SSE 6.9 mph - N/A   Clear
10:53 PM 66.9 °F - 61.0 °F 81% 30.00 in 10.0 mi SE 6.9 mph - N/A   Partly Cloudy
11:53 PM 66.0 °F - 60.1 °F 81% 30.00 in 9.0 mi SE 8.1 mph - N/A   Clear